FW8726 Weather Reports


time (UTC)temp
F
wind
direction
speed
knots
gust
knots
rain 1hr
in
rain 24hr
in
rain mn
in
humidity
%
barometer
mb
20260504033202 55 255 5.2 8.7 0.00 0.00 0.00 44 1014.2
20260504032659 55 227 1.7 6.1 0.00 0.00 0.00 44 1014.0
20260504032156 55 281 6.1 12.2 0.00 0.00 0.00 43 1014.0
20260504031653 55 273 1.7 10.4 0.00 0.00 0.00 43 1013.9
20260504031149 55 332 2.6 9.6 0.00 0.00 0.00 43 1014.0
20260504030646 55 323 3.5 7.8 0.00 0.00 0.00 43 1014.0
20260504030143 55 323 2.6 5.2 0.00 0.00 0.00 43 1014.0
20260504025640 56 168 0.9 7.8 0.00 0.00 0.00 42 1013.9
20260504025137 56 264 5.2 13.9 0.00 0.00 0.00 41 1013.8
20260504024634 56 38 1.7 7.0 0.00 0.00 0.00 41 1013.9
20260504024130 56 271 3.5 10.4 0.00 0.00 0.00 41 1014.1
20260504023627 56 289 3.5 9.6 0.00 0.00 0.00 41 1014.2
20260504023123 56 248 3.5 7.0 0.00 0.00 0.00 41 1013.9
20260504022620 56 292 2.6 7.8 0.00 0.00 0.00 41 1014.0
20260504022116 56 293 1.7 5.2 0.00 0.00 0.00 41 1014.1
20260504021614 56 147 1.7 5.2 0.00 0.00 0.00 41 1014.0
20260504021110 56 269 0.0 6.1 0.00 0.00 0.00 41 1014.2
20260504020607 56 251 2.6 6.1 0.00 0.00 0.00 41 1014.0
20260504020103 56 269 0.0 4.3 0.00 0.00 0.00 40 1013.9
20260504015600 57 269 3.5 7.8 0.00 0.00 0.00 39 1013.9
20260504015056 56 266 1.7 6.1 0.00 0.00 0.00 40 1014.0
20260504014552 57 334 0.0 2.6 0.00 0.00 0.00 40 1013.7
20260504014050 57 271 1.7 7.0 0.00 0.00 0.00 40 1013.8
20260504013547 57 285 0.9 4.3 0.00 0.00 0.00 40 1013.9
20260504013044 57 279 3.5 6.1 0.00 0.00 0.00 40 1013.5
20260504012541 57 315 5.2 8.7 0.00 0.00 0.00 39 1013.4
20260504012039 57 276 3.5 7.8 0.00 0.00 0.00 38 1013.6
20260504011536 57 331 1.7 3.5 0.00 0.00 0.00 37 1013.8
20260504011032 57 260 1.7 9.6 0.00 0.00 0.00 36 1013.6
20260504010527 57 322 1.7 4.3 0.00 0.00 0.00 37 1013.4
20260504010024 57 242 2.6 7.8 0.00 0.00 0.00 36 1013.4
20260504005520 57 331 3.5 7.0 0.00 0.00 0.00 37 1013.3
20260504005018 57 273 0.0 6.1 0.00 0.00 0.00 38 1013.3
20260504004516 57 342 0.0 3.5 0.00 0.00 0.00 40 1013.3
20260504004013 57 279 0.0 3.5 0.00 0.00 0.00 41 1013.3
20260504003509 58 280 1.7 6.1 0.00 0.00 0.00 40 1013.2
20260504003006 58 274 1.7 7.8 0.00 0.00 0.00 39 1013.0
20260504002503 58 307 3.5 9.6 0.00 0.00 0.00 36 1012.9
20260504002000 58 314 2.6 7.8 0.00 0.00 0.00 37 1012.9
20260504001457 59 311 8.7 9.6 0.00 0.00 0.00 36 1012.7
20260504000953 59 324 4.3 13.0 0.00 0.00 0.00 37 1012.7
20260504000451 59 275 6.1 7.8 0.00 0.00 0.00 38 1012.7
20260503235948 59 283 0.9 7.8 0.00 0.00 0.00 37 1012.4
20260503235446 59 281 3.5 5.2 0.00 0.00 0.00 34 1012.6
20260503234943 59 311 2.6 4.3 0.00 0.00 0.00 35 1012.6
20260503234440 60 293 3.5 6.1 0.00 0.00 0.00 34 1012.5
20260503233938 60 296 1.7 6.1 0.00 0.00 0.00 33 1012.2
20260503233434 60 308 5.2 7.0 0.00 0.00 0.00 33 1012.4
20260503232931 61 302 2.6 7.8 0.00 0.00 0.00 32 1012.2
20260503232428 61 287 8.7 10.4 0.00 0.00 0.00 31 1012.2
20260503231926 61 316 4.3 9.6 0.00 0.00 0.00 31 1012.3
20260503231423 61 299 7.0 13.9 0.00 0.00 0.00 30 1012.3
20260503230919 61 333 5.2 9.6 0.00 0.00 0.00 30 1012.0
20260503230416 61 325 1.7 14.8 0.00 0.00 0.00 29 1012.1
20260503225914 61 343 2.6 13.0 0.00 0.00 0.00 29 1012.1
20260503225410 61 330 2.6 11.3 0.00 0.00 0.00 29 1011.9
20260503224906 61 301 4.3 13.0 0.00 0.00 0.00 29 1012.0
20260503224403 61 350 1.7 10.4 0.00 0.00 0.00 29 1012.1
20260503223901 62 305 5.2 10.4 0.00 0.00 0.00 28 1012.0
20260503223359 61 297 12.2 19.1 0.00 0.00 0.00 28 1012.1
20260503222854 61 324 8.7 17.4 0.00 0.00 0.00 28 1011.9
20260503222353 61 341 6.1 23.5 0.00 0.00 0.00 28 1011.7
20260503221850 62 289 7.0 17.4 0.00 0.00 0.00 28 1011.7
20260503221349 62 316 4.3 11.3 0.00 0.00 0.00 28 1011.8
20260503220844 61 88 0.9 11.3 0.00 0.00 0.00 28 1011.7
20260503220341 61 276 6.1 18.2 0.00 0.00 0.00 27 1012.0
20260503215838 62 316 13.0 17.4 0.00 0.00 0.00 27 1012.1
20260503215335 62 286 7.0 16.5 0.00 0.00 0.00 27 1012.1
20260503214833 61 304 7.0 13.0 0.00 0.00 0.00 28 1011.9
20260503214330 60 303 11.3 30.4 0.00 0.00 0.00 28 1011.9
20260503213827 61 307 14.8 20.0 0.00 0.00 0.00 28 1012.0
20260503213325 62 310 13.0 14.8 0.00 0.00 0.00 27 1012.0
20260503212822 61 301 3.5 22.6 0.00 0.00 0.00 29 1011.9
20260503212320 61 303 6.1 16.5 0.00 0.00 0.00 29 1011.9
20260503211817 61 317 8.7 22.6 0.00 0.00 0.00 28 1011.9
20260503211313 61 284 10.4 14.8 0.00 0.00 0.00 29 1011.9
20260503210813 61 291 2.6 13.0 0.00 0.00 0.00 30 1011.9
20260503210311 61 313 7.8 18.2 0.00 0.00 0.00 30 1011.6
20260503205806 61 304 6.1 15.6 0.00 0.00 0.00 29 1011.7
20260503205304 61 307 4.3 16.5 0.00 0.00 0.00 29 1011.8
20260503204759 61 305 20.9 22.6 0.00 0.00 0.00 29 1011.9
20260503204257 61 280 4.3 15.6 0.00 0.00 0.00 30 1011.7
20260503203754 60 326 7.8 17.4 0.00 0.00 0.00 30 1011.6
20260503203251 62 318 7.0 16.5 0.00 0.00 0.00 29 1011.8
20260503202748 61 310 13.0 20.0 0.00 0.00 0.00 30 1011.9
20260503202246 60 300 9.6 18.2 0.00 0.00 0.00 30 1011.9
20260503201744 61 291 3.5 13.0 0.00 0.00 0.00 30 1012.0
20260503201241 60 277 13.0 22.6 0.00 0.00 0.00 30 1012.0
20260503200738 60 322 6.1 19.1 0.00 0.00 0.00 30 1012.2
20260503200234 59 26 4.3 21.7 0.00 0.00 0.00 30 1012.1
20260503195731 59 312 12.2 20.0 0.00 0.00 0.00 31 1012.1
20260503195228 59 295 13.0 20.9 0.00 0.00 0.00 31 1012.2
20260503194726 60 321 7.0 26.1 0.00 0.00 0.00 31 1012.0
20260503194221 59 321 5.2 15.6 0.00 0.00 0.00 31 1012.3
20260503193717 60 338 13.9 13.9 0.00 0.00 0.00 31 1012.2
20260503193214 60 286 9.6 16.5 0.00 0.00 0.00 30 1012.5
20260503192709 59 342 9.6 12.2 0.00 0.00 0.00 31 1012.3
20260503192205 59 305 6.1 17.4 0.00 0.00 0.00 31 1012.4
20260503191701 60 293 9.6 19.1 0.00 0.00 0.00 31 1012.3
20260503191159 59 324 7.0 20.0 0.00 0.00 0.00 33 1012.4
20260503190655 59 313 9.6 17.4 0.00 0.00 0.00 32 1012.5
20260503190152 59 259 7.0 14.8 0.00 0.00 0.00 34 1012.3
20260503185649 58 341 7.8 19.1 0.00 0.00 0.00 33 1012.5
20260503185144 57 312 5.2 24.3 0.00 0.00 0.00 34 1012.7
20260503184639 57 314 13.9 16.5 0.00 0.00 0.00 35 1012.7
20260503184136 56 317 12.2 16.5 0.00 0.00 0.00 36 1012.8
20260503183632 57 301 9.6 13.9 0.00 0.00 0.00 34 1012.8
20260503183130 57 316 7.8 14.8 0.00 0.00 0.00 36 1012.9
20260503182628 57 54 3.5 15.6 0.00 0.00 0.00 36 1012.9
20260503182126 56 321 4.3 17.4 0.00 0.00 0.00 36 1012.8
20260503181623 56 354 4.3 17.4 0.00 0.00 0.00 36 1012.9
20260503181120 57 290 8.7 13.9 0.00 0.00 0.00 36 1012.8
20260503180617 56 327 15.6 25.2 0.00 0.00 0.00 37 1013.1
20260503180115 56 281 12.2 17.4 0.00 0.00 0.00 36 1012.9
20260503175611 56 294 10.4 14.8 0.00 0.00 0.00 37 1013.0
20260503175108 54 335 9.6 22.6 0.00 0.00 0.00 39 1013.1
20260503174605 55 294 11.3 23.5 0.00 0.00 0.00 38 1012.9
20260503174102 54 344 2.6 14.8 0.00 0.00 0.00 40 1012.8
20260503173556 54 269 15.6 20.0 0.00 0.00 0.00 39 1013.1
20260503173053 54 334 8.7 18.2 0.00 0.00 0.00 39 1012.9
20260503172551 55 325 15.6 15.6 0.00 0.00 0.00 38 1012.9
20260503172048 54 292 18.2 18.2 0.00 0.00 0.00 39 1012.8
20260503171544 55 263 3.5 18.2 0.00 0.00 0.00 38 1013.0
20260503171042 55 347 4.3 14.8 0.00 0.00 0.00 38 1013.0
20260503170538 54 308 5.2 20.0 0.00 0.00 0.00 39 1012.9
20260503150918 52 20 12.2 20.9 0.00 0.00 0.00 40 1013.4
20260503150409 52 311 3.5 13.9 0.00 0.00 0.00 40 1013.5
20260503131302 50 279 6.1 11.3 0.00 0.00 0.00 53 1013.5
20260503130800 48 298 5.2 13.0 0.00 0.00 0.00 53 1013.7
20260503130257 48 308 3.5 13.9 0.00 0.00 0.00 54 1013.7
20260503110651 45 10 4.3 12.2 0.00 0.00 0.00 58 1012.9
20260503110148 46 327 6.1 13.0 0.00 0.00 0.00 57 1013.0
20260503100114 46 51 5.2 13.9 0.00 0.00 0.00 53 1011.9
20260503081504 48 3 7.0 9.6 0.00 0.00 0.00 53 1011.8
20260503081001 48 46 6.1 10.4 0.00 0.00 0.00 53 1011.7
20260503080457 48 28 3.5 12.2 0.00 0.00 0.00 53 1011.6
20260503072934 49 27 3.5 9.6 0.00 0.00 0.00 51 1011.5
20260503072431 49 17 4.3 10.4 0.00 0.00 0.00 51 1011.6
20260503071928 49 331 5.2 9.6 0.00 0.00 0.00 50 1011.8
20260503071425 49 69 4.3 7.8 0.00 0.00 0.00 50 1011.7
20260503070921 49 303 0.0 7.8 0.00 0.00 0.00 49 1011.5
20260503070418 49 336 4.3 9.6 0.00 0.00 0.00 49 1011.6
20260503054832 51 84 4.3 8.7 0.00 0.00 0.00 47 1012.0
20260503054327 51 329 2.6 7.0 0.00 0.00 0.00 47 1011.8
20260503053826 52 306 1.7 7.0 0.00 0.00 0.00 47 1012.1
20260503053324 52 275 0.0 7.8 0.00 0.00 0.00 48 1012.0
20260503052820 52 2 4.3 6.1 0.00 0.00 0.00 47 1011.7
20260503052317 52 294 0.0 6.1 0.00 0.00 0.00 47 1011.9
20260503051813 52 355 2.6 8.7 0.00 0.00 0.00 48 1012.3
20260503051309 52 339 2.6 6.1 0.00 0.00 0.00 47 1012.1
20260503050806 52 276 0.0 4.3 0.00 0.00 0.00 47 1012.3
20260503050302 52 354 5.2 11.3 0.00 0.00 0.00 46 1012.3
20260503045800 53 77 8.7 12.2 0.00 0.00 0.00 45 1012.4
20260503045258 53 55 3.5 6.1 0.00 0.00 0.00 42 1012.5
20260503044754 53 98 2.6 8.7 0.00 0.00 0.00 42 1012.3
20260503044251 53 288 1.7 8.7 0.00 0.00 0.00 41 1012.5
20260503043748 53 311 2.6 10.4 0.00 0.00 0.00 41 1012.3
20260503043245 53 0 2.6 13.0 0.00 0.00 0.00 40 1012.2
20260503042741 53 14 5.2 5.2 0.00 0.00 0.00 40 1012.4
20260503042238 53 359 1.7 5.2 0.00 0.00 0.00 41 1012.5
20260503041734 53 304 1.7 12.2 0.00 0.00 0.00 40 1012.3
20260503041232 53 20 4.3 7.8 0.00 0.00 0.00 40 1012.3
20260503040729 53 23 2.6 10.4 0.00 0.00 0.00 39 1012.5
20260503040221 54 12 4.3 6.1 0.00 0.00 0.00 40 1012.5
20260503035718 54 339 1.7 10.4 0.00 0.00 0.00 39 1012.8
20260503035215 54 292 2.6 11.3 0.00 0.00 0.00 39 1012.4
20260503034712 54 323 5.2 9.6 0.00 0.00 0.00 39 1012.3
20260503034209 54 1 4.3 11.3 0.00 0.00 0.00 39 1012.4
20260503033707 54 356 4.3 11.3 0.00 0.00 0.00 39 1012.6